Theta_e
324 329 329 329 328 325 323 322 321 322 323 321 317 316 319 324 316 311 327 341 330 329 337 336 340 344 340 342 342 339 346 346 347 362 367 358 360 369 374 377 379 383 386 391 389 381 377 372 365 361 361 360 358 355 353 351 350 351 352 351 353 357 362 367 368 368 369 367 365 364 364 363 361 359 359 358 357 359 360 360 360 359 360 359 358 356 353
324 327 328 330 328 325 323 324 324 324 323 322 320 321 323 324 322 321 329 337 335 332 333 332 336 342 341 342 344 342 341 341 346 356 356 348 349 361 372 376 379 380 383 389 390 385 382 376 369 364 361 361 359 354 351 350 348 349 351 352 351 355 362 368 369 368 369 369 366 364 364 363 361 360 359 359 357 358 360 361 360 359 358 359 358 355 353
321 325 328 328 328 326 322 322 326 325 324 323 321 322 324 323 322 325 326 329 331 332 333 335 336 339 342 343 345 344 344 344 344 344 345 342 343 356 370 374 375 377 380 384 387 386 383 378 372 366 363 363 361 355 351 349 348 348 351 353 352 353 361 368 369 369 369 369 368 366 365 364 364 362 360 359 358 358 359 359 360 359 358 357 357 355 353
317 324 327 325 326 326 320 319 324 324 322 322 322 323 324 321 321 322 320 319 325 332 333 333 335 338 339 340 341 345 346 345 343 342 344 344 345 359 372 376 375 375 375 379 383 380 375 374 372 368 367 367 363 358 353 348 347 348 351 356 354 353 360 368 370 371 370 370 371 369 368 367 366 364 362 361 360 359 360 360 360 360 358 356 356 355 354
316 323 325 325 324 320 316 319 324 327 326 325 325 326 327 326 324 321 317 319 329 337 336 332 334 334 336 339 340 340 346 351 351 348 346 344 345 355 369 376 377 373 368 371 377 374 370 370 371 368 368 368 365 363 358 352 348 347 351 357 358 355 361 368 371 372 371 372 372 371 370 369 367 367 366 363 362 362 362 362 360 359 358 356 355 355 353
315 322 325 323 320 316 318 326 329 329 328 327 326 326 327 328 327 325 324 326 333 336 334 333 335 336 339 344 345 342 346 354 357 355 351 348 346 345 352 365 374 374 373 372 374 373 371 369 368 368 368 368 367 365 362 358 355 350 350 359 361 359 362 369 372 372 373 375 374 372 372 370 369 369 367 365 364 363 363 361 359 359 357 356 355 354 353
316 321 322 318 316 319 326 332 333 330 329 329 329 329 330 330 329 329 330 330 332 334 333 333 337 342 341 341 343 343 340 344 348 348 349 351 351 349 346 356 371 378 379 377 376 375 372 368 368 369 368 367 367 366 365 364 362 358 355 361 366 365 366 370 373 374 375 375 374 373 371 369 368 367 366 365 364 362 362 361 359 358 357 355 354 353 352
319 318 318 318 320 327 331 333 333 331 332 331 328 326 328 331 330 330 333 336 336 333 332 331 333 339 337 334 338 339 335 337 339 337 339 342 344 346 347 358 379 385 380 375 375 374 372 368 368 368 367 367 368 367 366 365 365 364 363 368 371 370 371 374 375 375 375 374 372 370 368 366 365 363 362 362 361 361 361 360 359 358 356 355 354 353 352
321 317 316 321 324 325 329 332 333 333 333 333 330 325 329 334 333 332 336 338 337 337 337 333 329 333 334 332 335 334 330 333 336 333 334 334 336 339 340 353 374 379 374 372 373 374 374 370 367 367 366 367 369 367 365 365 366 367 371 373 373 373 375 376 376 375 374 372 370 368 366 364 363 361 361 361 361 361 361 360 359 357 356 355 354 353 352
324 319 317 322 322 321 327 332 337 338 335 336 337 331 332 338 335 334 336 337 339 343 344 340 336 336 334 334 334 332 329 331 332 332 332 331 335 336 336 349 366 369 369 370 371 374 375 371 368 368 368 369 370 367 366 367 365 368 374 375 374 375 376 376 374 373 372 370 368 366 364 363 362 360 360 360 361 361 360 359 358 357 356 355 353 352 351
325 323 321 322 321 323 332 338 341 340 335 336 338 329 326 337 340 339 342 341 340 342 344 346 348 343 335 332 332 332 332 330 328 331 332 330 331 333 335 347 360 364 365 367 369 374 376 372 369 370 369 369 369 367 368 368 366 369 375 376 375 375 375 375 373 371 369 368 366 364 363 361 360 359 358 358 358 358 357 357 357 354 353 352 351 350 349
325 324 322 322 323 330 342 343 339 337 336 337 332 321 324 342 350 346 346 345 344 346 349 350 348 343 339 336 333 331 331 331 337 344 348 344 338 333 333 338 350 362 369 371 371 373 374 372 370 369 368 369 368 368 369 367 367 371 375 375 375 374 374 374 372 370 368 366 364 363 362 360 358 357 357 356 355 355 355 355 353 351 349 348 347 347 347
323 324 323 323 326 336 343 340 337 337 337 333 325 322 333 350 349 344 346 347 347 351 354 352 348 343 338 335 335 332 329 335 349 353 353 354 349 335 331 340 354 369 375 374 370 370 371 372 370 368 368 369 368 369 370 369 370 372 374 374 373 372 372 373 370 368 366 364 362 362 361 359 358 357 356 354 354 354 353 351 349 347 346 345 344 344 344
321 322 323 322 325 333 338 338 337 336 333 327 327 336 346 347 342 342 345 345 347 352 354 353 352 348 341 333 334 334 334 347 356 355 352 356 356 345 341 350 358 368 374 372 369 368 369 371 369 367 369 371 371 372 373 373 374 374 374 373 371 370 371 369 367 366 364 362 362 363 361 360 358 357 355 355 354 353 350 348 347 345 344 343 342 342 341
322 320 321 321 324 333 337 339 339 336 334 334 340 346 345 339 340 344 345 345 348 350 350 352 352 350 348 344 340 341 344 350 356 356 355 357 359 358 359 361 361 366 371 370 367 366 367 368 367 367 372 374 374 374 374 374 374 373 373 372 370 368 367 365 364 364 363 362 362 361 361 360 357 355 355 354 353 350 347 344 343 342 341 340 340 339 338
321 317 320 325 331 335 335 338 340 339 340 343 345 343 340 338 342 344 345 348 348 346 348 353 354 353 355 355 353 355 355 350 351 356 357 359 362 363 362 363 364 364 368 369 365 363 365 366 367 370 373 373 374 374 374 373 372 373 372 369 367 366 364 363 364 363 362 360 359 358 358 357 355 353 352 350 347 345 344 342 341 339 339 339 338 338 337
330 326 331 337 340 339 336 339 341 341 340 341 340 340 340 341 342 344 346 348 345 344 348 352 353 353 352 353 356 357 358 356 357 359 359 360 363 363 359 361 365 364 366 367 365 364 367 368 370 372 372 372 374 376 374 371 370 371 369 366 365 364 363 362 361 360 358 356 355 355 356 354 353 351 348 346 344 343 342 341 340 339 338 338 338 338 337
343 341 342 341 340 338 337 337 338 338 337 337 339 342 343 342 341 342 343 345 345 345 348 351 352 350 347 348 350 351 354 358 358 358 360 362 362 359 357 360 364 363 362 363 366 370 373 372 372 374 373 374 375 374 372 370 369 368 366 365 363 362 361 359 357 356 354 353 353 353 352 351 350 348 346 345 343 342 341 341 340 340 339 338 338 338 337
343 344 344 342 338 338 337 335 335 335 336 337 339 341 343 342 342 341 342 344 345 345 347 350 350 348 347 348 348 346 345 350 354 357 360 361 359 359 360 362 363 363 362 363 368 372 373 372 372 373 372 372 372 371 370 369 367 365 364 362 361 360 358 356 354 353 352 350 350 350 349 348 347 345 344 344 342 342 341 341 341 341 340 338 338 338 338
343 343 344 342 339 338 336 336 337 336 336 337 339 339 340 339 338 337 338 339 339 341 344 348 350 348 345 344 346 346 342 342 348 355 360 359 356 355 358 360 362 363 365 366 368 370 371 371 371 370 369 369 368 368 368 367 365 363 361 359 359 357 355 354 352 351 348 347 347 347 345 345 344 343 343 342 342 342 341 341 341 342 341 340 339 339 338
342 344 344 343 341 341 338 336 337 336 336 337 337 336 336 335 334 334 333 332 332 332 335 339 344 347 345 345 347 346 343 341 343 349 355 357 357 358 360 360 362 363 364 364 365 366 365 365 365 365 364 364 364 363 364 363 362 360 357 356 355 354 352 351 350 347 345 344 344 344 342 341 340 340 341 342 341 341 341 341 341 342 341 340 339 338 337
342 343 343 343 344 344 341 336 334 334 333 333 333 332 331 331 331 331 330 329 328 328 329 331 334 338 342 345 346 345 344 344 344 346 351 354 354 355 356 357 358 359 359 360 360 360 359 358 358 358 359 361 361 361 361 360 359 356 355 354 352 351 350 349 346 345 344 343 343 342 338 336 336 336 338 340 340 339 339 339 340 340 341 340 338 338 338
340 340 340 342 343 342 340 336 334 332 330 330 330 329 329 329 329 329 328 328 328 329 328 327 328 330 333 335 337 340 343 344 344 347 350 351 353 353 353 354 356 355 355 355 356 357 356 355 356 357 359 360 360 359 358 357 356 354 353 352 350 349 348 347 345 344 344 343 343 341 337 335 335 335 334 336 336 336 337 337 336 337 338 338 337 337 337
338 339 339 339 339 337 335 333 333 333 332 331 330 329 328 329 329 328 328 328 329 330 329 325 324 326 329 329 329 332 334 335 339 343 345 347 349 351 352 353 354 354 353 352 352 353 353 354 355 357 358 358 358 357 356 355 353 352 351 350 349 348 347 345 345 344 343 342 343 341 339 338 337 336 334 333 332 333 335 335 335 335 336 336 335 336 336
337 338 337 335 334 333 332 330 330 331 332 331 330 329 328 328 327 327 327 327 327 328 327 324 322 323 326 327 327 327 328 329 333 336 338 340 343 346 349 350 352 353 353 352 352 352 352 353 355 355 355 356 357 356 355 354 353 352 351 349 348 347 346 345 345 344 342 342 342 341 340 339 339 338 337 335 332 330 331 333 334 335 335 335 334 335 335
336 336 334 333 332 331 330 329 329 329 330 329 329 329 328 328 327 327 326 326 325 325 325 324 323 324 325 325 326 326 326 327 329 331 333 334 336 339 344 347 348 350 352 353 353 354 353 353 354 354 354 354 355 355 355 354 353 351 350 348 347 346 345 345 345 344 342 342 342 341 340 340 339 339 339 338 335 331 330 331 332 332 333 333 333 333 333
334 334 335 335 333 331 330 329 327 326 327 327 327 326 325 326 327 326 326 326 325 325 324 324 325 325 324 324 325 325 324 325 327 327 329 330 331 331 336 342 345 347 350 352 352 353 353 352 352 353 352 353 353 353 353 353 352 350 349 347 347 346 345 344 344 343 341 342 342 341 340 340 339 338 338 338 337 334 333 333 332 330 329 329 329 330 330
331 333 334 334 332 330 328 327 325 324 324 325 325 324 323 323 323 323 323 324 325 325 325 325 325 325 326 326 325 323 322 324 325 325 327 329 329 328 332 339 344 345 347 349 350 350 351 351 350 351 351 351 351 351 352 352 351 349 347 346 346 345 344 344 343 342 341 342 341 339 339 339 338 338 338 339 338 336 335 335 335 331 326 324 325 326 327
328 329 330 330 330 330 329 328 327 326 325 325 325 324 322 320 320 321 322 323 323 324 326 326 325 324 326 328 328 326 326 326 327 327 327 328 329 328 330 336 342 343 343 346 348 349 349 350 350 349 350 349 350 351 351 351 349 347 346 345 345 344 344 343 342 340 341 341 340 338 339 339 338 338 338 339 339 337 337 336 335 330 324 322 323 323 324
327 327 326 326 326 327 328 328 328 327 326 326 325 324 323 322 323 324 325 326 325 325 325 325 325 326 325 325 326 328 328 328 329 329 328 327 328 328 328 331 338 342 343 343 345 347 347 348 348 347 347 347 347 348 349 349 348 346 345 344 343 343 343 342 341 340 340 341 340 338 338 339 338 337 337 338 338 337 336 335 333 329 324 323 323 323 323
325 326 325 324 325 325 325 326 325 325 325 325 325 324 324 325 327 328 328 328 328 329 328 325 325 327 326 324 323 326 327 328 328 329 330 329 325 325 328 332 336 339 342 343 343 343 344 346 346 346 345 344 343 345 347 347 345 344 343 342 341 341 341 341 340 339 339 340 339 338 338 338 338 337 336 336 335 335 335 335 333 330 327 326 326 325 323
324 325 324 324 325 324 324 325 324 323 323 324 325 324 324 325 327 329 330 329 328 330 330 327 326 327 328 327 326 326 327 327 327 328 332 331 325 321 326 332 334 337 339 339 337 337 339 342 344 344 342 342 342 343 344 344 343 342 341 340 339 339 339 340 339 339 339 340 339 338 338 338 337 336 336 334 333 334 334 335 335 333 330 329 328 326 323
323 324 323 323 324 324 324 325 325 324 323 323 324 324 324 325 325 326 328 329 329 329 329 328 328 329 329 329 330 329 328 328 329 330 333 333 328 324 327 332 334 334 333 330 330 334 337 338 340 340 339 340 341 341 342 343 341 339 338 338 338 338 337 337 337 338 339 339 338 337 337 336 335 334 334 333 332 332 333 334 335 334 332 331 330 328 325
322 322 322 322 322 323 323 324 324 324 324 324 323 323 323 324 324 325 326 327 328 328 328 327 327 329 329 329 330 330 329 330 332 332 333 333 331 330 331 333 334 334 332 330 332 336 338 339 340 339 339 340 339 338 340 341 340 338 337 336 335 334 335 335 336 336 336 335 335 334 334 334 333 333 333 333 332 332 333 333 333 333 333 332 331 329 327
322 322 321 321 321 321 322 322 322 323 323 324 324 323 323 323 324 324 325 325 325 326 327 326 325 326 326 327 328 328 329 330 332 332 331 331 331 331 332 333 333 334 333 333 333 334 336 338 338 338 338 338 337 336 338 338 337 337 336 335 333 333 334 334 335 335 334 332 331 332 333 332 332 332 332 332 332 331 332 332 331 330 332 332 330 329 327
322 322 322 322 322 322 322 322 322 322 322 324 324 324 324 324 324 324 325 325 325 325 325 325 325 325 325 326 327 326 327 328 329 329 329 330 330 331 331 331 333 334 335 335 334 333 334 336 335 334 336 337 336 336 336 336 336 336 336 335 335 334 333 333 334 334 333 332 332 332 332 332 332 331 331 331 331 330 330 330 330 329 330 330 329 327 326
322 322 322 323 323 323 322 322 323 323 324 325 325 325 325 325 325 325 326 326 326 326 325 325 326 326 326 326 326 325 326 327 328 329 329 330 332 332 333 333 334 335 335 335 334 334 335 335 334 334 337 337 337 336 336 337 338 337 336 336 336 334 332 332 333 332 333 333 333 333 332 332 332 332 331 330 330 329 329 329 329 328 327 328 328 326 325
321 322 323 323 324 323 323 323 323 324 324 324 324 325 326 325 325 326 326 326 326 326 326 326 326 326 326 326 326 327 328 328 328 329 330 331 332 333 334 334 334 334 334 334 334 334 335 335 335 336 338 338 337 336 335 336 338 337 336 336 336 334 332 332 332 332 333 335 334 333 332 332 331 330 329 329 328 328 328 328 328 327 326 326 327 326 325
322 323 323 323 324 324 324 324 323 323 324 324 324 324 325 325 326 326 326 326 326 327 326 327 327 327 327 327 328 329 329 329 329 330 331 331 331 332 332 332 332 332 332 332 332 332 333 334 335 335 336 336 336 335 334 335 336 335 335 335 335 334 334 334 333 333 334 334 333 332 331 330 330 328 327 327 327 327 326 325 325 325 325 324 325 325 325
322 323 323 322 323 323 323 322 322 322 323 323 324 324 325 325 325 326 326 326 326 327 327 327 327 327 328 328 328 329 329 330 330 330 330 330 330 331 331 331 330 330 330 330 331 331 332 332 333 333 333 334 334 334 334 334 335 335 335 335 334 335 334 334 333 333 333 332 331 330 329 329 328 327 326 326 326 326 325 324 323 323 323 321 321 322 323
322 322 322 322 322 322 322 322 322 323 323 323 323 324 324 324 324 325 326 325 326 326 327 327 327 327 327 327 327 327 328 329 330 330 330 330 331 330 330 330 330 330 330 330 330 330 331 331 331 331 331 331 331 332 332 332 333 333 332 332 332 333 333 332 332 332 331 330 329 329 327 327 326 325 325 326 325 324 324 322 321 320 320 319 319 320 321
322 322 322 322 322 323 323 324 323 323 323 323 323 323 323 323 324 324 324 325 325 325 325 326 326 326 326 326 326 326 326 328 329 330 330 330 330 330 329 329 329 329 329 329 328 329 330 331 331 330 330 329 329 329 330 330 330 330 330 329 329 330 330 329 329 329 328 327 326 325 325 325 325 325 325 324 323 322 322 322 320 319 318 318 318 318 318
322 322 322 322 322 322 323 323 323 323 323 322 322 322 322 323 323 323 324 324 324 324 324 324 324 325 325 325 325 325 325 326 326 327 328 328 328 328 327 327 327 327 327 327 327 328 328 328 328 328 327 327 327 327 327 328 328 327 328 328 327 327 327 327 326 327 327 326 325 325 325 325 325 324 323 323 322 320 320 319 319 318 318 317 317 317 317
321 321 321 322 322 322 322 322 322 322 322 321 321 321 320 321 321 322 323 323 322 322 322 322 322 323 324 324 325 325 325 325 325 325 326 326 326 326 327 326 326 325 326 326 326 326 325 324 324 323 323 322 322 323 324 325 326 326 327 327 326 326 326 327 326 326 326 326 326 325 325 325 324 323 322 321 320 319 319 318 318 317 317 317 316 316 316
320 320 320 320 321 321 322 321 321 320 320 319 319 319 319 320 320 320 321 321 320 320 320 321 321 321 322 322 323 323 323 323 324 324 324 324 324 324 324 324 324 324 325 326 326 324 322 320 320 319 319 319 320 321 322 322 322 323 324 324 324 324 325 326 326 326 325 324 324 324 324 323 322 321 319 318 317 317 317 317 316 316 315 314 314 314 313
319 319 319 319 320 320 320 319 319 319 318 318 319 319 319 318 318 319 319 320 319 319 318 319 319 319 319 319 320 321 321 320 321 321 323 324 324 323 324 324 323 323 324 325 324 323 320 318 318 317 317 317 319 321 321 319 319 319 320 320 320 321 322 323 323 323 323 322 322 322 321 320 319 318 317 316 316 315 314 314 314 314 313 313 313 313 313
319 319 319 319 319 318 318 318 318 318 319 320 322 321 319 317 317 317 317 318 318 318 318 317 318 318 318 318 318 318 318 318 318 318 319 320 322 322 322 321 320 320 321 323 324 323 321 318 317 316 316 315 318 320 320 318 318 318 318 318 318 318 318 318 319 319 319 319 318 317 317 317 317 316 315 315 315 314 314 313 313 313 312 312 313 313 312
319 319 319 318 318 318 318 318 319 319 320 321 321 320 318 317 317 317 317 317 318 318 318 317 317 318 318 317 317 317 317 318 318 317 317 317 318 319 319 320 318 318 319 321 322 322 321 319 318 317 316 315 317 320 320 318 317 317 317 317 317 317 317 317 317 317 317 317 316 316 316 316 316 316 315 315 314 314 314 313 313 313 312 312 312 312 312
319 318 318 318 318 318 319 319 319 320 320 319 319 318 318 318 318 317 317 316 317 317 317 316 317 316 316 317 317 317 316 317 317 317 316 316 316 316 318 320 320 318 317 318 320 321 321 320 319 318 317 316 317 320 321 320 319 318 317 317 317 317 317 317 316 316 316 316 316 315 315 315 315 315 315 314 314 314 314 314 313 313 312 312 312 312 311
319 318 318 319 318 319 318 318 318 318 318 318 318 317 317 317 317 318 317 317 316 317 317 316 316 316 316 317 317 317 316 316 316 316 315 316 316 315 315 317 317 317 317 317 318 320 322 321 319 319 319 319 320 320 321 321 321 319 318 316 317 317 317 317 316 316 316 316 316 315 315 315 315 315 315 314 314 314 314 314 313 313 312 312 312 311 311
319 319 318 318 318 318 317 317 317 317 317 316 316 316 316 316 317 317 317 316 316 317 316 316 316 316 316 316 316 316 316 316 316 315 315 315 315 315 315 315 315 315 316 317 318 319 321 321 321 321 321 321 321 321 320 321 321 320 319 317 317 316 316 316 316 316 316 316 316 315 315 315 315 315 315 314 314 314 314 314 314 313 313 312 312 311 311
317 317 317 317 317 317 317 316 316 316 316 316 316 316 315 316 316 316 316 316 316 316 316 316 316 315 315 315 315 315 315 316 316 315 315 315 315 315 315 315 315 315 315 317 317 317 318 318 320 321 322 321 320 320 320 320 320 320 319 319 318 317 317 316 316 316 316 316 315 315 315 315 315 315 315 314 314 314 314 313 313 313 312 312 312 312 311
Wind_Speed
24 22 20 20 18 17 18 20 22 23 23 24 23 20 20 17 11 11 10 9 11 14 16 15 10 10 12 10 10 11 8 6 6 6 8 11 13 13 11 11 12 10 10 10 11 14 14 16 21 24 26 29 30 28 30 33 33 33 35 35 35 34 35 34 34 36 36 35 36 36 35 35 36 36 36 36 34 33 33 32 30 28 25 25 27 30 33
26 28 24 23 21 18 19 20 20 21 22 24 24 22 23 21 16 17 17 13 12 14 16 18 15 10 9 8 7 10 11 9 9 6 9 14 15 14 13 12 11 10 9 10 11 12 13 14 18 22 24 27 29 29 30 32 33 32 33 36 35 33 34 35 36 36 36 34 34 35 35 35 36 37 36 35 33 31 32 31 29 27 25 23 24 26 29
18 24 24 25 25 22 21 19 18 20 21 22 24 21 21 20 18 21 23 15 10 12 13 15 16 12 10 8 7 9 11 12 13 13 12 14 14 14 15 13 12 12 11 10 11 12 13 14 17 21 23 25 28 30 31 32 33 32 31 35 36 34 34 36 36 36 36 34 32 33 34 34 34 34 33 31 29 27 27 27 27 26 24 23 22 22 23
12 16 20 25 25 23 23 21 21 23 22 20 20 19 19 18 16 18 19 14 10 10 12 13 15 15 14 13 12 12 9 13 16 16 14 14 13 11 15 14 13 14 14 12 12 13 14 15 18 22 23 23 26 30 32 33 34 33 30 33 36 35 34 35 37 36 35 33 32 32 32 31 29 28 28 26 24 22 21 21 22 23 22 21 20 20 21
11 14 17 19 20 19 18 19 21 22 21 20 20 16 16 18 17 14 13 11 8 7 10 14 16 16 15 13 13 14 12 10 13 14 13 14 13 9 11 13 14 14 14 13 14 14 15 17 22 25 25 24 26 28 30 31 33 33 30 31 36 35 33 35 36 35 34 32 30 30 29 27 25 23 23 23 22 19 15 14 17 20 20 19 19 20 21
10 15 16 14 14 14 12 13 18 21 20 21 20 16 16 20 19 15 13 13 11 8 9 14 14 12 11 11 10 13 13 8 6 7 9 11 12 10 8 10 14 14 12 12 14 15 18 21 25 26 26 25 25 26 28 27 29 33 30 29 33 35 32 33 34 33 32 29 27 26 25 23 22 20 20 20 20 17 13 10 12 16 17 17 18 20 22
9 12 14 14 13 12 11 10 13 16 18 20 19 19 20 21 19 19 18 15 14 12 12 13 9 7 10 11 9 10 13 11 10 9 9 10 11 10 9 8 12 14 13 13 14 16 20 23 24 24 25 26 26 26 27 26 27 29 28 26 30 32 31 30 31 31 29 26 24 24 24 23 21 18 16 15 15 15 13 11 11 13 14 14 16 18 20
8 9 12 13 10 10 13 14 12 13 16 19 19 19 21 20 19 18 11 5 7 13 16 15 11 8 11 12 11 11 13 13 15 16 15 14 13 10 9 7 10 15 15 15 16 18 20 22 23 24 26 27 27 28 28 26 26 26 24 24 28 28 28 27 27 27 28 26 24 23 24 22 19 16 12 11 12 13 12 10 9 10 12 15 16 16 16
9 10 10 10 9 11 13 14 12 10 10 12 11 12 14 15 16 13 8 8 10 9 11 18 17 13 12 11 9 15 19 17 17 19 19 19 16 14 13 10 10 16 18 18 19 20 21 22 24 26 27 27 27 27 28 27 26 25 22 24 26 26 25 25 24 25 26 25 23 22 22 20 17 14 12 12 13 13 11 9 8 9 12 15 17 17 17
8 9 10 9 10 12 11 9 5 3 2 1 2 4 6 7 9 10 9 9 9 12 13 12 12 13 13 10 8 14 21 22 20 19 19 19 18 16 15 12 13 15 19 21 21 23 24 23 25 26 27 28 27 25 26 27 27 24 23 25 26 25 25 25 25 25 27 25 22 22 21 20 18 17 16 16 15 14 12 10 9 9 10 11 13 17 18
6 9 10 9 10 9 7 6 4 2 0 4 4 4 6 4 7 9 8 8 8 9 12 13 9 6 9 9 9 11 17 21 21 19 17 19 21 19 18 14 15 16 19 22 22 23 24 23 25 27 28 29 27 24 25 28 27 24 23 26 27 26 25 26 26 26 26 24 22 22 22 22 21 20 19 17 15 14 14 12 9 8 7 7 10 13 15
6 8 8 7 7 4 5 6 6 4 3 4 1 7 5 4 8 8 8 8 8 9 10 10 9 6 5 6 7 11 16 16 10 5 8 13 17 22 22 17 14 17 18 20 18 20 23 23 25 28 29 29 27 24 26 28 26 24 26 28 30 28 26 27 28 27 26 25 23 22 23 23 21 19 19 18 17 16 15 14 12 9 6 6 8 11 13
8 9 8 6 5 4 7 9 8 5 5 3 7 7 1 5 7 8 8 8 8 9 9 8 6 6 10 11 10 12 17 10 3 8 10 17 13 17 18 12 12 16 16 17 17 18 23 24 25 28 28 25 23 24 26 25 25 27 30 31 31 29 28 29 29 27 27 26 24 23 23 23 21 20 19 18 16 14 14 15 14 12 9 7 8 10 13
9 9 9 6 6 7 7 9 8 6 4 4 5 1 2 4 6 8 9 9 9 10 9 9 8 9 14 17 14 13 9 1 8 7 5 12 15 8 7 7 13 14 12 15 17 17 20 23 25 27 26 22 21 23 23 22 25 29 32 33 32 30 30 31 29 27 27 27 25 23 23 23 22 20 18 15 12 12 13 14 13 12 10 9 8 11 14
9 9 10 8 7 7 7 7 7 9 6 2 2 4 3 4 7 10 9 8 9 10 9 10 11 13 16 17 14 13 8 3 7 5 2 2 8 9 6 3 13 14 9 10 14 16 19 23 25 25 23 22 22 21 20 22 28 31 32 33 33 31 31 30 28 26 26 25 22 21 21 21 19 18 16 15 15 15 15 15 14 13 11 10 11 13 14
8 10 9 5 4 6 10 8 4 4 3 4 4 4 4 5 8 9 9 9 10 10 10 10 10 12 16 17 14 13 8 2 5 2 3 3 2 1 0 5 11 12 9 9 12 15 19 22 23 22 23 23 20 18 20 25 30 32 32 33 32 31 30 28 26 24 23 21 19 19 19 19 19 19 18 17 17 17 16 15 15 13 11 10 12 13 13
4 3 2 3 6 3 6 5 3 5 7 8 7 6 6 7 8 9 9 10 11 11 10 10 9 9 12 16 17 16 13 10 8 4 1 1 3 5 4 5 9 11 11 10 11 12 15 16 17 20 25 25 20 17 22 29 31 31 32 32 31 30 28 27 25 24 23 21 20 19 18 19 20 19 18 18 18 16 15 14 14 13 12 12 13 14 13
5 6 5 4 4 3 4 5 4 6 8 10 10 10 8 6 5 7 9 10 11 11 11 10 8 8 10 13 16 18 17 15 11 9 7 5 4 5 5 6 9 12 14 14 11 11 14 17 18 20 24 25 22 21 25 29 30 31 31 31 30 29 28 27 25 25 24 22 19 18 17 18 18 16 14 15 17 16 14 13 14 14 14 14 14 14 15
4 4 5 5 6 5 5 4 4 6 10 9 9 9 9 7 7 9 9 10 10 11 12 10 6 6 10 11 10 12 16 18 15 9 8 8 9 8 4 4 6 9 11 12 13 15 16 19 22 23 24 27 27 27 28 26 27 29 30 29 28 28 28 27 25 24 23 20 18 17 17 16 15 14 13 14 15 16 14 14 15 15 14 15 15 14 14
3 4 4 3 10 11 10 9 6 5 9 11 11 12 12 13 14 14 15 15 14 13 13 12 10 10 12 11 9 9 9 12 15 9 7 8 4 5 4 3 4 6 8 11 13 13 14 18 21 23 25 27 28 28 27 25 25 27 28 28 27 27 26 25 23 22 21 21 21 19 16 16 16 15 15 15 15 16 15 15 15 16 15 15 16 15 14
3 4 4 4 10 12 14 16 15 12 12 13 14 15 16 17 16 16 17 18 17 16 16 15 16 15 13 11 11 10 7 7 11 11 6 10 9 7 10 14 14 12 11 10 11 13 15 19 21 22 24 25 26 27 26 25 26 27 27 26 26 25 24 22 21 21 20 20 20 19 18 19 19 17 16 16 16 16 14 14 14 15 15 16 16 16 16
2 3 4 1 6 8 9 14 17 17 16 16 17 18 18 17 16 15 17 17 17 18 18 17 17 16 13 10 10 8 5 4 8 10 6 9 12 14 17 20 21 21 19 15 14 14 17 21 23 23 23 24 25 25 24 24 26 28 27 25 24 23 22 21 21 21 20 19 18 18 20 22 22 18 15 15 16 16 13 12 11 11 12 14 13 12 16
3 4 6 2 6 9 9 13 15 15 14 16 18 17 16 16 15 15 16 16 15 16 17 18 18 17 15 13 11 9 7 3 3 4 6 10 12 15 17 17 18 20 20 19 17 16 16 20 22 22 23 23 22 21 22 22 25 28 27 24 22 21 20 21 23 22 20 19 18 18 19 21 21 21 18 16 16 15 14 12 10 8 9 11 10 9 14
5 4 3 3 9 12 12 14 14 12 12 13 15 15 15 15 15 15 15 15 14 13 14 15 17 16 15 15 14 13 11 10 9 8 11 14 15 17 19 18 17 17 17 16 15 14 15 18 19 20 22 21 20 20 21 22 24 25 24 22 21 19 20 22 23 21 20 20 19 18 19 19 18 19 19 16 15 14 13 12 11 9 9 10 9 9 12
3 1 4 8 12 13 13 12 12 11 11 11 12 13 14 14 15 15 14 13 13 13 12 13 14 15 15 14 14 14 14 15 16 15 15 16 18 19 20 20 18 16 15 15 14 14 16 18 19 20 20 20 19 19 19 20 21 21 20 20 20 20 21 22 21 19 20 21 20 19 20 19 17 16 15 13 12 13 13 12 12 11 11 10 10 10 11
1 4 8 11 12 11 10 10 10 11 11 11 11 11 12 14 15 15 14 12 12 13 13 11 11 13 14 13 13 14 14 16 19 19 17 15 17 18 19 18 17 16 15 15 15 15 16 17 18 18 18 17 17 17 17 18 19 18 18 19 20 21 22 21 19 18 20 20 20 20 21 20 19 18 16 15 15 15 14 12 11 11 11 10 10 11 11
5 1 5 8 9 9 10 10 10 10 9 10 10 11 11 12 12 13 13 13 12 13 14 13 12 12 14 15 15 15 16 17 18 17 15 15 16 18 18 18 17 16 15 15 14 14 14 14 14 16 16 15 15 16 15 16 17 16 16 19 22 21 21 19 18 18 19 19 19 19 19 19 19 18 17 17 18 18 15 12 11 11 11 11 11 11 11
8 5 2 6 9 11 12 12 12 11 10 9 9 10 10 10 12 13 13 13 13 12 13 14 15 12 11 13 14 14 14 15 15 14 14 17 18 19 20 19 16 15 15 14 13 12 12 12 13 14 14 13 13 14 14 15 14 13 15 19 21 19 18 17 16 16 18 19 19 18 18 18 18 17 17 18 18 17 16 15 13 12 12 12 11 11 11
9 7 6 7 10 12 13 13 12 12 11 10 8 9 11 12 12 11 11 12 12 11 11 13 14 13 11 11 11 10 9 10 12 13 15 18 20 20 22 22 17 16 16 15 13 13 11 11 13 12 11 11 11 12 13 12 11 12 15 18 19 17 17 17 17 17 18 19 21 21 19 19 18 17 17 18 17 16 16 15 15 15 15 14 13 11 11
8 8 9 10 10 11 12 12 12 12 12 11 10 10 11 12 10 8 9 11 11 10 10 10 10 10 10 10 11 10 8 9 11 13 15 17 19 20 21 21 17 14 13 13 13 11 9 9 9 8 8 8 10 11 11 11 11 13 15 16 17 18 18 17 18 20 18 18 21 23 21 18 15 14 15 17 17 16 16 17 17 16 15 15 13 12 13
9 11 13 14 14 14 13 11 10 11 11 10 11 11 10 10 8 6 7 10 8 7 8 8 7 7 7 5 6 8 8 9 11 12 12 14 16 18 19 18 14 11 10 12 14 12 8 7 5 4 4 5 8 10 11 11 10 10 13 16 17 18 18 17 18 19 17 16 18 20 18 15 14 13 14 15 16 16 16 18 18 15 14 14 12 12 15
10 13 13 12 12 13 13 10 9 11 11 10 11 11 9 9 8 7 7 8 6 4 5 6 5 5 4 1 2 4 4 6 7 8 8 10 13 15 15 14 13 13 13 15 16 15 13 9 4 1 1 2 7 11 12 12 10 11 14 17 17 19 19 18 17 17 16 15 16 15 14 14 15 14 13 13 13 14 15 17 17 15 14 14 13 14 18
11 11 11 11 10 11 12 10 9 10 11 10 10 9 8 8 9 8 7 7 4 1 3 3 1 2 1 2 4 4 3 2 3 4 3 4 6 9 10 7 7 9 11 13 13 12 12 11 6 2 3 2 6 12 13 12 11 12 15 15 16 19 18 14 14 17 17 15 15 14 14 15 15 15 14 13 13 13 14 15 16 15 14 14 15 16 17
10 10 9 9 9 9 10 9 8 9 9 9 8 9 9 8 8 8 7 6 5 3 3 2 1 1 2 4 5 5 6 3 1 1 0 1 1 6 7 3 2 4 4 5 7 6 6 7 6 3 2 3 5 12 16 15 12 13 15 15 15 15 12 9 12 16 16 15 14 14 13 14 14 13 12 11 11 11 12 14 15 14 13 13 15 17 16
9 9 9 9 9 9 9 9 9 9 9 8 7 9 9 9 9 9 8 7 5 5 4 3 1 2 3 1 2 1 3 3 3 2 2 2 3 6 6 5 5 4 3 0 3 4 4 5 5 3 2 3 3 6 12 14 14 14 17 17 15 14 11 10 12 13 14 15 15 13 12 12 11 11 10 9 8 9 11 13 13 12 13 16 16 17 16
8 8 7 7 8 9 10 9 9 9 9 8 8 8 9 9 10 9 8 8 8 7 6 5 3 2 3 3 2 3 3 4 4 3 2 2 1 2 2 3 5 4 4 3 5 6 7 6 4 3 3 4 5 4 4 6 10 14 16 15 14 13 12 12 11 11 12 13 13 11 12 13 13 11 11 10 9 8 8 9 8 7 10 16 18 18 18
8 8 7 5 6 8 9 9 9 9 8 8 7 8 8 8 8 9 10 9 9 8 7 5 4 4 5 5 5 5 5 5 5 4 3 4 4 5 6 7 7 6 5 6 7 8 9 7 4 1 4 9 10 8 8 9 11 12 12 12 11 11 11 11 13 14 14 14 14 15 16 16 14 12 10 9 9 8 7 8 7 4 5 13 18 19 18
8 8 8 7 7 7 8 10 11 11 10 9 8 8 8 7 8 10 11 11 10 9 8 7 6 5 6 6 5 6 6 7 6 6 6 6 7 8 9 9 8 6 5 5 7 8 8 6 4 5 8 10 9 8 10 12 11 8 8 9 8 7 8 10 14 14 13 13 15 16 15 13 11 10 9 8 8 8 7 8 8 7 6 9 15 18 17
7 7 7 7 6 6 7 9 11 10 10 9 9 9 9 10 10 11 11 11 12 12 11 9 7 6 5 5 5 7 9 9 8 8 8 8 8 9 10 9 7 6 6 6 7 9 9 7 8 9 9 7 6 6 9 10 9 6 6 8 8 7 8 12 14 12 11 13 13 12 12 11 11 11 9 8 8 7 5 4 5 7 7 9 12 16 17
6 6 7 7 7 7 7 8 9 10 12 13 11 10 10 11 11 10 10 11 12 13 12 10 8 6 6 6 6 7 9 9 9 8 8 7 8 9 9 8 8 8 7 7 7 8 9 9 9 9 9 8 8 8 8 8 7 7 7 8 10 11 13 14 13 11 10 12 12 11 11 11 10 10 10 9 8 7 6 4 4 6 6 8 10 13 15
9 8 8 7 7 8 9 9 10 12 13 13 12 12 12 12 11 10 9 10 11 11 10 10 8 7 7 8 8 9 10 11 10 9 7 6 7 6 5 6 9 9 7 7 8 8 8 8 8 8 8 9 9 9 8 8 7 8 9 9 9 10 11 12 11 10 11 12 11 9 9 9 8 7 9 10 9 9 10 11 11 10 9 8 9 9 13
10 10 10 9 8 9 9 9 10 11 12 12 13 13 13 12 12 11 10 10 11 10 10 10 9 9 8 8 9 10 10 11 11 11 10 9 8 6 5 6 9 9 7 7 8 8 8 8 8 7 7 8 8 7 7 7 6 7 8 9 8 8 9 10 9 9 10 10 10 8 7 8 7 7 9 11 11 11 12 12 11 11 11 10 7 6 8
10 10 9 8 8 9 9 8 7 8 9 11 12 12 12 12 12 11 11 11 11 10 10 10 10 9 9 9 9 9 9 10 10 11 11 12 13 12 10 9 9 10 9 9 9 8 8 7 7 7 7 8 7 6 5 4 4 5 6 7 7 6 7 8 7 7 7 8 8 8 8 8 9 10 12 12 10 9 7 6 6 7 6 2 0 2 4
10 9 8 8 9 9 8 8 8 7 8 8 9 10 11 11 11 11 10 10 10 11 11 11 10 9 9 10 9 9 9 9 10 9 8 8 10 12 11 10 9 10 11 10 10 9 8 7 6 6 6 6 5 5 4 2 5 7 7 8 8 7 8 7 6 6 7 6 5 6 7 9 10 11 11 8 7 7 5 4 3 2 2 3 5 4 3
10 10 10 10 9 7 7 6 6 6 7 8 9 9 9 9 10 10 9 8 9 10 10 10 11 10 9 9 10 9 9 9 10 9 6 5 7 9 10 10 10 10 10 9 8 8 8 7 6 4 3 3 6 9 7 3 3 4 6 8 8 9 12 13 13 12 12 11 10 10 11 12 12 9 3 2 5 6 6 5 4 3 3 3 4 4 4
10 11 11 9 7 7 7 7 7 7 7 8 8 9 9 8 7 7 6 6 7 8 8 9 9 9 8 9 10 10 9 9 10 10 8 7 8 8 8 8 9 9 9 9 8 9 7 5 5 3 1 1 4 7 6 5 5 5 3 3 2 2 5 9 9 9 11 12 12 12 11 11 9 6 6 7 7 8 9 8 6 4 2 1 2 3 3
10 10 10 9 8 8 9 10 10 10 8 7 6 6 6 6 5 5 5 6 6 4 4 6 6 6 7 10 11 10 10 10 9 10 9 7 7 8 7 7 8 7 6 4 5 6 4 4 4 4 2 2 5 7 5 2 3 3 3 3 2 2 0 1 1 0 2 1 4 7 5 1 1 4 9 9 5 4 5 4 3 4 5 6 5 2 3
9 10 10 10 10 9 9 10 10 8 6 6 7 7 8 9 9 11 12 10 5 1 3 7 10 11 12 13 12 13 14 13 10 10 13 12 9 8 7 6 7 8 7 3 2 3 2 3 5 5 5 5 7 9 6 1 2 2 2 2 0 1 1 2 2 3 3 1 4 5 4 1 0 1 4 5 4 6 8 10 12 12 10 7 6 5 5
11 11 11 12 12 11 10 9 8 7 8 9 10 11 11 10 10 11 12 13 12 8 8 12 13 13 12 12 11 14 16 15 11 11 14 14 13 13 10 5 4 7 9 7 3 1 1 2 4 4 4 4 6 9 9 8 6 2 3 4 3 3 3 3 2 2 3 5 6 5 5 5 5 6 7 8 9 10 10 9 6 4 2 3 4 6 7
11 11 10 11 10 10 10 9 8 8 10 10 10 10 10 9 8 9 11 13 13 11 12 12 13 12 11 10 11 12 13 12 11 12 13 12 11 12 12 10 9 10 10 9 7 4 1 2 1 3 3 3 5 7 9 10 10 6 3 4 4 4 4 3 1 2 3 3 5 8 9 10 10 10 10 8 7 4 3 2 2 4 6 6 7 9 9
9 9 10 10 10 10 11 11 10 10 10 11 11 11 10 10 8 9 9 11 13 12 12 12 12 11 10 9 9 10 10 10 11 13 14 13 11 10 11 11 12 13 12 10 8 4 1 3 4 5 5 3 5 6 7 8 9 8 6 6 5 5 5 6 5 5 6 6 6 7 8 9 9 8 7 7 6 5 4 5 6 8 9 9 9 11 13
12 12 11 10 9 10 11 12 13 12 11 10 11 11 10 10 10 8 7 8 10 10 9 10 11 13 13 11 10 10 10 9 9 11 14 13 11 11 12 13 12 12 12 12 11 8 7 8 6 4 6 5 6 7 7 7 8 9 9 8 8 7 6 6 6 7 8 9 9 9 9 9 9 9 8 8 8 9 9 9 9 9 10 10 11 12 12
Wind_Direction
225 235 237 234 227 219 219 221 218 215 218 227 231 230 229 224 229 244 235 216 230 245 248 244 227 213 225 218 193 203 220 212 190 149 148 179 180 170 171 173 175 181 181 176 176 179 181 183 186 189 190 193 198 198 195 196 197 193 189 189 189 186 185 188 189 193 198 200 200 200 200 200 201 203 205 207 209 209 206 207 210 212 211 207 206 208 209
213 220 231 240 240 230 222 222 224 220 215 220 230 236 235 230 232 243 240 228 224 235 246 252 252 240 232 232 206 194 196 212 229 211 195 207 198 176 176 179 177 184 183 174 174 178 181 184 186 189 191 191 195 198 196 195 199 197 188 186 188 186 184 186 189 193 197 200 201 202 201 202 203 205 206 208 210 211 208 209 212 214 213 208 203 204 206
223 214 217 230 240 242 237 227 223 229 229 221 221 228 237 236 234 237 240 239 235 236 241 250 255 254 254 259 242 213 193 194 223 245 238 227 212 184 180 182 177 181 186 179 175 178 184 188 189 191 192 191 193 199 199 197 199 199 189 182 185 187 185 186 188 191 195 199 201 202 203 204 204 205 207 208 211 212 211 213 214 214 213 209 202 200 200
242 225 216 220 229 241 250 243 228 226 232 235 228 216 218 231 240 241 239 237 233 229 232 244 249 243 244 251 249 246 223 193 206 225 230 234 232 194 176 182 183 180 181 179 177 182 188 189 190 192 193 191 193 199 202 199 198 199 192 182 184 187 185 184 186 189 192 196 198 200 202 203 203 204 206 207 209 210 212 216 215 212 213 213 209 205 202
233 236 230 223 222 229 239 242 240 234 230 237 243 228 210 219 233 243 246 245 243 229 222 233 240 235 232 235 240 249 248 218 208 216 216 224 232 210 176 179 183 182 180 179 180 185 189 192 194 194 193 193 196 200 202 200 196 198 195 184 182 185 183 181 183 185 189 192 195 197 198 198 197 197 199 202 203 203 204 209 212 211 215 217 215 212 211
225 234 237 232 228 231 229 226 236 244 243 240 242 238 227 222 220 220 227 237 248 256 246 239 235 232 233 235 232 238 245 241 221 220 224 224 224 223 212 186 175 174 178 179 180 186 192 195 197 196 195 197 200 201 203 201 195 197 196 184 180 183 180 178 179 181 184 186 187 187 186 185 184 185 191 197 201 203 202 202 207 210 212 215 217 220 221
222 223 230 230 227 232 242 243 240 246 254 259 257 250 243 238 231 224 223 223 222 230 252 261 255 245 252 260 256 243 243 249 253 252 246 234 220 217 223 202 174 170 174 176 179 186 191 193 193 193 195 198 199 199 201 199 194 196 196 183 175 178 177 175 176 177 178 177 175 173 173 174 177 180 186 194 200 206 210 210 208 209 212 218 224 227 228
224 215 218 228 237 243 245 248 248 243 244 251 257 257 253 255 254 248 253 282 245 225 230 241 250 257 257 260 266 265 258 250 249 253 254 248 241 234 237 218 174 168 174 178 181 182 184 187 188 192 196 197 196 197 198 195 192 193 189 173 167 170 170 168 169 171 171 170 167 167 169 172 177 179 181 191 199 205 213 217 214 214 219 226 228 229 229
221 219 219 229 245 249 239 233 235 238 234 234 244 253 254 259 265 268 291 321 312 295 255 232 223 222 234 241 243 252 256 252 244 245 249 252 251 247 247 229 176 166 171 175 178 176 178 186 189 191 194 194 193 195 194 188 186 184 174 163 161 163 163 161 157 156 159 159 157 161 168 170 170 172 178 189 196 198 201 206 213 223 230 230 226 223 225
205 221 223 223 230 232 226 219 225 259 262 181 348 308 277 273 291 300 295 283 300 331 322 279 235 209 214 224 219 227 239 247 247 243 244 251 254 255 251 221 171 162 169 172 175 174 177 188 190 188 192 191 190 192 187 181 182 177 164 159 160 161 161 159 156 157 159 158 156 160 165 164 164 170 179 183 184 184 184 190 206 221 226 220 212 213 219
199 224 222 217 228 230 211 193 193 236 258 76 53 300 273 301 332 332 326 316 315 323 325 322 310 249 217 223 225 220 222 232 242 244 241 243 242 249 256 226 179 167 170 171 175 176 178 186 189 187 190 188 187 188 181 177 179 172 160 159 161 160 162 161 160 161 162 161 163 166 166 166 168 173 175 172 170 171 174 178 184 194 203 198 193 201 209
206 224 229 232 239 219 159 173 195 195 123 88 190 241 250 4 15 9 360 351 340 326 327 334 325 300 272 253 246 240 231 229 238 270 294 279 243 230 243 236 184 158 160 166 174 180 179 182 187 187 188 187 185 183 176 174 176 168 159 159 160 161 163 160 157 158 157 160 167 170 168 166 167 170 171 170 172 173 172 169 160 150 151 166 174 182 191
213 219 230 248 256 209 174 185 196 166 123 166 227 227 274 10 7 13 5 356 355 348 340 332 314 303 301 293 281 261 245 238 26 32 354 326 285 224 225 225 157 140 151 164 177 186 180 179 185 187 187 186 179 174 172 172 171 164 157 156 157 159 157 154 153 156 158 162 167 168 165 164 165 170 171 170 171 171 166 159 148 131 123 135 158 173 181
219 224 228 234 254 244 205 184 189 187 177 213 231 196 37 340 345 1 358 356 357 350 341 334 331 326 307 295 298 299 274 207 57 47 11 334 321 287 244 202 152 144 154 165 177 186 180 179 186 186 182 175 167 167 169 167 163 158 154 153 154 153 149 149 153 156 159 163 165 164 165 166 166 166 164 160 160 160 157 150 138 128 129 140 162 173 177
220 230 229 223 233 226 185 169 199 213 208 202 37 35 11 352 5 360 350 356 357 347 343 342 344 344 328 312 317 326 318 120 94 78 115 323 333 334 320 174 150 150 155 163 179 188 182 183 187 181 169 160 159 164 165 159 156 153 150 150 150 147 145 147 151 154 156 159 159 158 159 161 158 155 151 150 152 154 151 140 129 130 139 150 162 166 172
224 227 227 241 274 216 184 179 199 184 128 74 53 32 8 17 20 3 351 359 358 353 352 348 353 1 350 341 348 353 347 41 95 115 193 193 187 245 250 137 145 152 151 160 182 187 182 184 182 170 157 153 154 157 154 150 148 147 145 145 142 140 140 143 146 148 149 150 147 144 146 149 147 144 140 135 136 141 141 133 128 133 142 154 166 171 177
253 239 226 322 330 279 177 155 121 111 88 63 58 55 38 31 21 5 360 2 360 358 360 357 3 14 5 356 359 2 4 15 30 23 347 152 183 207 200 160 156 155 151 167 185 176 165 163 156 149 148 145 139 137 139 141 141 140 139 138 135 134 135 137 139 141 139 137 135 133 135 140 139 136 131 127 129 136 140 138 138 141 149 164 180 187 192
341 9 22 25 20 40 93 94 97 100 79 60 58 62 57 47 33 16 7 5 7 11 17 19 15 19 23 15 5 360 357 358 8 20 13 354 314 255 220 186 169 162 165 175 166 132 123 120 114 119 127 126 121 122 128 133 135 136 135 133 131 130 130 130 133 133 129 127 128 127 127 131 134 135 135 133 135 140 146 152 154 154 160 173 183 188 194
344 334 336 21 68 82 67 61 81 93 86 76 72 75 70 57 56 51 33 23 29 37 39 40 29 22 37 41 29 14 360 344 345 15 39 11 341 317 273 200 170 160 161 153 127 112 113 112 107 107 111 111 113 118 123 127 130 132 132 131 130 131 130 127 128 130 130 131 134 134 134 137 140 143 144 143 144 152 160 166 166 166 171 178 185 189 188
356 256 265 47 77 78 64 50 43 82 105 100 90 89 83 68 62 58 46 40 42 41 43 52 55 48 46 44 37 36 19 338 326 343 51 67 28 325 334 38 108 127 128 126 121 118 118 115 112 112 115 118 122 125 129 131 130 130 131 130 130 133 133 130 130 133 136 140 142 143 146 150 151 152 153 153 158 167 174 172 169 173 179 183 186 186 179
329 252 218 116 87 74 66 60 51 55 79 89 85 83 79 72 67 62 54 49 43 35 34 47 58 60 57 48 36 33 26 336 308 308 360 68 80 66 50 54 64 75 88 107 117 118 120 122 121 120 122 128 134 136 138 137 132 128 128 128 129 132 134 136 136 137 139 144 145 141 138 138 139 143 153 160 162 168 173 171 172 183 191 191 188 182 174
239 258 272 171 102 85 70 65 62 61 68 73 73 70 68 66 64 62 58 53 45 38 33 34 44 52 54 57 63 62 42 331 291 289 329 45 61 57 54 57 61 62 64 73 81 93 109 119 122 122 123 127 131 134 137 135 129 127 128 128 130 134 136 138 138 139 143 149 144 132 126 125 123 123 134 149 156 159 161 162 171 186 188 182 181 176 169
249 260 282 305 98 94 74 63 64 65 67 70 71 68 65 65 62 60 59 52 44 40 36 32 36 40 37 37 50 66 67 35 315 317 14 44 58 60 56 56 60 62 63 65 69 78 97 109 115 118 118 118 121 124 126 127 126 128 130 130 133 138 140 139 142 147 150 151 143 130 127 127 125 121 120 126 137 145 147 149 158 165 160 157 158 157 158
280 259 241 116 95 90 78 67 64 63 63 66 68 66 65 65 62 60 60 56 48 45 41 35 33 33 32 31 30 32 36 28 12 17 38 46 55 63 62 60 62 64 65 68 71 78 90 98 105 111 112 112 115 118 123 127 129 132 134 134 138 142 139 141 150 153 149 146 143 137 137 139 134 129 126 122 121 128 133 139 149 152 148 149 150 151 158
278 137 103 98 95 92 86 74 65 64 64 63 65 65 66 69 70 66 62 57 52 50 49 43 35 29 29 30 27 25 27 22 13 13 28 40 47 54 58 59 61 62 64 70 76 82 87 88 93 102 108 112 115 118 125 132 135 139 141 141 142 141 139 147 157 153 143 145 146 143 147 152 149 145 145 138 126 124 128 133 142 147 147 150 157 161 168
6 111 104 102 97 91 89 81 67 61 62 65 69 70 68 70 74 73 69 65 58 53 51 48 41 35 32 30 27 26 27 24 18 16 22 32 39 44 50 56 61 63 63 64 69 78 87 89 94 102 109 115 121 126 132 137 140 144 146 142 139 139 143 151 157 148 143 148 149 147 155 162 163 164 167 160 148 141 137 134 139 144 150 160 172 177 179
9 74 122 113 96 81 82 86 78 68 63 64 71 74 72 72 73 72 70 67 62 58 54 46 39 37 36 33 27 24 26 26 22 19 20 23 26 30 34 41 53 61 61 61 66 75 86 96 102 106 112 119 126 130 135 140 145 151 148 135 129 134 144 151 152 148 149 152 151 153 159 163 166 171 170 162 158 157 155 154 152 147 150 164 174 178 181
14 7 58 110 102 95 95 95 91 82 71 62 65 72 72 67 64 64 64 59 52 53 54 48 39 31 28 31 30 23 21 23 20 17 15 15 16 18 18 22 40 57 57 56 60 65 76 92 98 99 105 115 122 128 134 139 147 154 146 131 126 134 145 149 148 149 151 151 152 153 156 161 170 175 168 161 160 162 165 166 158 146 150 166 174 175 182
24 23 48 91 112 122 120 110 101 94 86 76 69 67 67 64 58 56 57 54 45 39 41 44 40 29 16 20 29 26 17 16 16 13 10 8 9 11 11 12 26 46 49 47 51 53 59 74 84 90 101 112 118 124 131 136 140 141 137 131 131 139 148 151 150 151 152 151 153 157 163 172 179 178 168 161 159 164 169 166 153 145 154 164 165 163 170
34 36 49 62 78 97 101 95 89 88 87 86 82 73 69 70 66 58 57 55 48 36 32 33 37 35 23 13 14 14 8 3 6 6 5 6 7 8 9 9 17 33 40 36 37 45 55 65 75 86 99 113 126 132 133 133 131 128 132 137 140 148 158 158 152 151 153 152 153 159 171 180 180 173 166 161 161 168 168 154 144 145 153 158 160 161 164
57 56 57 55 56 64 69 73 79 78 76 80 83 82 83 84 84 80 69 60 49 36 35 32 25 33 44 28 357 354 354 358 358 353 354 6 9 3 1 4 6 12 20 17 14 18 33 58 86 98 83 100 129 135 132 136 135 127 135 146 151 155 160 155 145 146 151 148 147 156 169 174 169 169 170 166 165 167 157 141 138 146 153 155 160 164 164
65 61 62 63 63 62 61 62 69 73 73 72 70 72 77 80 79 80 81 76 63 29 41 49 23 11 35 47 306 321 342 0 355 333 334 8 15 358 352 359 1 357 4 11 10 3 1 8 36 101 33 90 142 142 139 147 149 131 128 139 143 141 140 141 142 145 146 144 150 162 170 168 165 170 174 170 167 167 158 146 143 151 158 162 166 169 171
58 58 61 65 70 70 66 60 57 63 69 69 69 71 74 76 78 82 89 99 106 81 60 69 3 304 261 243 249 232 223 288 315 292 308 25 17 333 322 341 6 3 2 2 359 353 349 350 350 323 305 274 169 158 153 157 157 138 128 129 130 128 129 137 148 146 142 150 165 173 171 167 167 170 173 171 171 174 168 155 150 154 160 163 168 174 179
63 69 70 69 72 74 75 74 70 66 62 59 64 72 73 71 76 81 85 96 108 111 106 118 243 209 182 246 251 205 184 196 236 250 258 97 217 272 277 277 69 55 23 343 336 347 2 1 0 358 303 271 209 177 168 169 169 151 135 130 133 134 132 135 142 144 149 162 171 170 168 167 165 164 168 173 173 168 155 146 151 160 157 152 165 180 184
73 77 77 78 80 80 79 79 82 83 79 73 68 68 68 69 70 67 67 71 70 69 79 84 63 102 131 210 298 108 128 135 134 145 176 188 211 240 235 198 154 126 125 256 330 354 9 3 5 19 2 300 260 188 173 178 180 161 141 135 138 141 143 149 153 157 164 166 164 164 167 162 152 148 152 155 154 149 143 145 159 166 150 141 158 180 182
79 79 79 79 81 82 80 77 76 77 76 72 62 52 50 60 70 71 70 67 61 59 64 63 56 100 135 136 114 104 106 113 120 127 140 149 197 278 239 149 126 112 99 63 27 18 13 5 352 340 2 30 48 74 117 151 157 149 143 141 142 144 154 167 167 157 151 148 144 141 140 137 135 136 138 137 139 142 141 144 157 164 148 144 155 171 174
72 75 76 69 70 77 78 75 76 78 76 72 66 52 39 41 57 71 76 75 73 77 80 68 47 43 49 54 68 86 92 96 96 85 70 74 64 52 54 56 55 58 61 44 27 19 15 12 359 351 51 61 70 82 96 105 113 125 137 142 144 152 163 157 138 126 124 126 126 125 126 126 127 132 138 147 156 159 158 156 157 162 150 146 150 159 167
65 66 65 58 55 63 67 65 67 72 73 73 74 71 62 50 45 50 57 57 59 70 81 81 71 64 57 51 57 62 64 72 82 79 73 75 72 68 65 57 48 49 51 38 28 23 22 29 62 84 78 71 72 90 110 115 113 121 138 143 150 173 173 144 127 123 126 127 130 133 133 132 136 146 154 166 173 175 180 180 176 177 174 158 153 156 164
73 70 69 64 59 62 71 71 69 67 66 66 64 61 62 60 53 48 48 44 38 43 54 62 66 71 70 60 51 45 43 45 55 60 61 70 83 86 83 74 61 54 58 57 44 32 32 50 74 81 81 82 84 95 111 118 117 119 132 139 142 144 137 129 126 127 131 135 142 147 148 149 158 168 174 181 184 182 178 169 167 175 189 192 177 166 163
74 72 72 71 67 66 68 68 66 62 59 58 55 48 47 52 54 53 52 48 44 44 47 47 45 53 63 63 61 58 52 51 57 64 66 73 80 82 77 69 59 53 56 60 52 40 44 61 74 77 77 78 80 83 88 97 104 109 119 133 136 128 121 125 131 136 140 148 158 164 163 165 174 182 181 176 173 171 166 162 174 187 209 230 215 182 166
73 71 67 63 63 64 63 62 62 61 59 57 57 53 49 51 54 54 51 52 52 53 52 50 45 46 52 58 64 70 68 65 65 65 67 73 79 79 72 62 55 49 49 53 49 48 57 66 68 70 76 76 75 75 76 83 93 94 91 98 113 117 119 129 144 152 156 162 166 166 167 173 181 184 177 168 169 180 185 179 174 176 194 228 231 189 164
76 74 69 65 62 62 61 60 61 62 61 59 58 57 54 52 54 53 51 52 54 55 56 57 54 47 45 49 57 62 66 70 72 68 61 59 65 74 81 70 53 43 48 69 69 60 62 68 65 62 70 78 76 71 73 83 97 105 106 114 127 136 140 148 158 159 158 163 167 167 170 173 180 194 197 190 189 198 199 190 187 193 201 212 222 206 188
81 79 78 76 72 70 71 71 71 70 66 60 57 58 58 57 58 59 56 52 48 45 47 52 57 55 51 47 48 51 53 58 67 72 69 63 60 59 61 62 47 31 37 67 80 72 62 67 66 60 68 86 89 71 63 92 122 127 131 140 153 161 160 162 168 172 174 178 182 185 183 177 187 212 223 215 206 209 207 197 214 238 241 230 253 248 233
77 79 82 81 78 76 76 74 71 71 70 63 59 60 60 57 57 61 63 61 55 47 39 36 43 57 66 62 54 49 49 50 54 60 66 67 62 55 50 50 46 34 32 48 68 69 58 56 63 65 74 85 70 20 341 219 171 157 156 163 167 164 160 161 169 178 180 177 182 195 197 190 196 215 228 218 201 202 196 167 170 237 311 22 23 1 331
73 73 76 81 86 91 91 90 95 100 95 82 71 67 65 64 63 60 58 63 66 60 48 37 31 34 52 70 71 62 59 63 64 61 58 60 57 46 39 43 47 36 21 28 59 73 66 60 64 64 62 51 27 11 4 24 99 123 153 167 166 164 169 176 180 180 178 175 177 189 201 204 205 210 221 75 103 125 123 109 103 94 69 42 11 349 349
76 76 77 79 84 91 95 102 107 101 86 74 65 55 49 55 68 70 65 67 67 60 58 58 46 29 29 52 62 56 51 56 61 59 64 84 92 81 67 61 55 33 12 19 52 71 73 67 56 42 31 21 4 0 11 39 43 33 50 103 109 151 180 180 179 182 187 187 182 181 195 212 210 174 109 84 84 91 92 90 88 78 59 18 313 320 341
76 77 77 72 68 71 74 76 74 68 61 62 66 52 33 32 47 58 68 90 107 114 92 74 64 50 49 58 58 47 38 39 38 33 34 58 91 91 78 71 65 47 27 38 71 75 62 42 24 10 357 323 321 328 344 66 89 48 41 53 30 335 318 119 106 203 235 185 92 93 103 167 225 113 105 105 100 81 79 97 156 210 216 205 196 220 285
72 76 71 63 59 55 54 59 62 56 46 47 45 27 10 14 28 31 26 26 33 96 100 71 61 58 59 60 56 45 38 36 33 22 16 19 29 35 34 51 66 49 28 30 108 112 59 17 7 357 349 337 327 322 323 359 126 121 105 100 293 274 207 137 155 203 206 134 63 64 79 106 260 123 123 138 177 215 222 216 211 210 210 202 193 207 227
56 65 63 57 50 41 38 47 50 32 19 27 29 17 3 8 28 32 18 4 1 18 52 61 59 57 54 50 47 44 39 36 32 25 18 16 17 14 5 6 39 30 10 355 347 345 359 11 2 348 334 325 318 311 309 316 323 302 207 197 216 231 212 174 155 188 187 164 156 169 198 215 223 223 215 208 210 222 231 228 214 208 249 289 275 247 229
47 56 58 56 51 41 38 43 42 25 14 14 16 10 360 358 20 34 20 359 356 14 33 34 33 38 40 33 31 34 32 27 23 20 14 13 16 8 352 343 354 4 355 340 334 333 199 170 314 316 297 276 276 282 293 311 324 319 265 229 232 243 238 220 223 292 280 221 185 190 202 211 217 226 228 221 213 219 251 278 295 309 306 292 274 269 267
50 52 56 59 56 50 44 40 35 28 21 15 14 14 7 358 9 33 28 3 355 7 22 18 12 14 17 14 15 18 15 11 11 9 3 1 4 356 339 336 349 354 346 337 336 335 245 216 228 228 223 246 278 277 278 294 307 307 292 271 255 244 233 224 223 238 254 260 260 255 243 233 234 246 253 246 239 245 253 249 254 272 280 273 268 275 272
53 49 50 53 57 55 47 37 27 22 20 18 16 13 6 358 358 12 24 17 9 8 10 3 353 350 351 354 359 360 359 359 0 354 348 349 356 355 345 342 346 349 345 342 340 335 334 335 321 253 213 231 272 277 274 280 287 289 292 291 281 265 253 242 236 237 238 240 248 263 270 268 264 263 262 257 252 253 253 246 239 242 250 257 268 281 278